CW8917 Weather Reports


Display with metric or nautical units.
time (UTC)temp
F
wind
direction
speed
MPH
gust
MPH
rain 1hr
in
rain 24hr
in
rain mn
in
humidity
%
barometer
mb
20260906232618 80 213 3.0 6.0 0.00 0.00 0.00 34 1010.7
20260906231630 80 211 4.0 7.0 0.00 0.00 0.00 34 1010.8
20260906230621 81 225 3.0 7.0 0.00 0.00 0.00 33 1011.0
20260906225628 81 225 3.0 7.0 0.00 0.00 0.00 33 1011.1
20260906224640 81 214 3.0 11.0 0.00 0.00 0.00 33 1011.2
20260906223630 81 248 5.0 12.0 0.00 0.00 0.00 31 1011.2
20260906222620 82 207 5.0 11.0 0.00 0.00 0.00 32 1011.2
20260906221616 82 228 7.0 11.0 0.00 0.00 0.00 32 1011.3
20260906220648 83 223 6.0 10.0 0.00 0.00 0.00 31 1011.4
20260906215631 83 213 7.0 13.0 0.00 0.00 0.00 31 1011.3
20260906214642 84 223 8.0 16.0 0.00 0.00 0.00 31 1011.4
20260906213637 83 212 7.0 12.0 0.00 0.00 0.00 32 1011.4
20260906212627 82 221 8.0 18.0 0.00 0.00 0.00 32 1011.4
20260906211619 83 205 6.0 12.0 0.00 0.00 0.00 32 1011.4
20260906210651 83 224 6.0 11.0 0.00 0.00 0.00 31 1011.4
20260906205617 83 198 9.0 14.0 0.00 0.00 0.00 29 1011.6
20260906204649 83 225 8.0 12.0 0.00 0.00 0.00 29 1011.9
20260906203619 82 262 8.0 12.0 0.00 0.00 0.00 30 1011.9
20260906202650 82 215 5.0 8.0 0.00 0.00 0.00 27 1012.2
20260906201621 81 252 4.0 11.0 0.00 0.00 0.00 31 1012.5
20260906200616 81 233 7.0 12.0 0.00 0.00 0.00 31 1012.6
20260906195619 80 230 4.0 14.0 0.00 0.00 0.00 31 1012.7
20260906194630 80 231 8.0 14.0 0.00 0.00 0.00 30 1012.9
20260906193621 81 210 6.0 15.0 0.00 0.00 0.00 30 1012.8
20260906192616 82 207 7.0 14.0 0.00 0.00 0.00 30 1012.8
20260906191628 82 220 6.0 10.0 0.00 0.00 0.00 28 1012.9
20260906190619 82 243 8.0 14.0 0.00 0.00 0.00 28 1013.1
20260906185621 81 205 6.0 17.0 0.00 0.00 0.00 29 1013.1
20260906184616 82 202 8.0 13.0 0.00 0.00 0.00 27 1013.3
20260906183627 81 237 6.0 18.0 0.00 0.00 0.00 29 1013.4
20260906182617 81 267 8.0 15.0 0.00 0.00 0.00 29 1013.5
20260906181632 81 225 10.0 15.0 0.00 0.00 0.00 26 1013.6
20260906180625 81 259 9.0 16.0 0.00 0.00 0.00 26 1013.9
20260906175649 81 246 7.0 16.0 0.00 0.00 0.00 28 1014.1
20260906174617 80 228 8.0 16.0 0.00 0.00 0.00 27 1014.3
20260906173628 80 230 12.0 20.0 0.00 0.00 0.00 27 1014.5
20260906172622 80 259 7.0 20.0 0.00 0.00 0.00 29 1014.4
20260906171613 79 284 9.0 14.0 0.00 0.00 0.00 28 1014.5
20260906170622 79 211 8.0 16.0 0.00 0.00 0.00 30 1014.5
20260906165623 79 194 9.0 17.0 0.00 0.00 0.00 30 1014.6
20260906164615 78 250 10.0 19.0 0.00 0.00 0.00 31 1014.6
20260906163626 78 225 9.0 16.0 0.00 0.00 0.00 31 1014.6
20260906162617 78 226 6.0 10.0 0.00 0.00 0.00 33 1014.7
20260906161629 77 249 3.0 6.0 0.00 0.00 0.00 35 1014.7
20260906160624 75 215 3.0 7.0 0.00 0.00 0.00 37 1014.9
20260906155627 74 205 3.0 5.0 0.00 0.00 0.00 35 1014.9
20260906154618 72 302 0.0 3.0 0.00 0.00 0.00 35 1015.0
20260906153613 70 279 0.0 0.0 0.00 0.00 0.00 37 1015.0
20260906152645 69 279 0.0 1.0 0.00 0.00 0.00 40 1015.0
20260906151615 68 279 0.0 3.0 0.00 0.00 0.00 44 1015.0
20260906150626 67 9 1.0 2.0 0.00 0.00 0.00 45 1014.9
20260906145614 65 17 1.0 4.0 0.00 0.00 0.00 47 1014.9
20260906144625 63 338 1.0 3.0 0.00 0.00 0.00 50 1014.9
20260906143616 61 180 0.0 2.0 0.00 0.00 0.00 52 1014.9
20260906142627 59 175 0.0 4.0 0.00 0.00 0.00 57 1014.8
20260906141623 58 170 0.0 3.0 0.00 0.00 0.00 60 1014.8
20260906140613 57 170 0.0 6.0 0.00 0.00 0.00 60 1014.8
20260906135615 56 165 1.0 3.0 0.00 0.00 0.00 61 1014.7
20260906134627 55 165 1.0 4.0 0.00 0.00 0.00 58 1014.6
20260906133622 55 154 0.0 4.0 0.00 0.00 0.00 58 1014.4
20260906132612 54 217 0.0 3.0 0.00 0.00 0.00 58 1014.3
20260906131623 55 355 0.0 3.0 0.00 0.00 0.00 57 1014.2
20260906130618 54 92 0.0 2.0 0.00 0.00 0.00 59 1014.1
20260906125621 54 92 0.0 1.0 0.00 0.00 0.00 61 1014.1
20260906124651 53 92 1.0 6.0 0.00 0.00 0.00 63 1014.1
20260906123620 53 203 0.0 3.0 0.00 0.00 0.00 63 1014.0
20260906122651 54 203 2.0 4.0 0.00 0.00 0.00 61 1014.0
20260906121645 55 247 1.0 4.0 0.00 0.00 0.00 60 1014.1
20260906120614 56 14 0.0 4.0 0.00 0.00 0.00 57 1014.0
20260906115616 58 307 1.0 3.0 0.00 0.00 0.00 54 1014.1
20260906114627 58 175 0.0 3.0 0.00 0.00 0.00 50 1013.9
20260906113620 58 217 0.0 2.0 0.00 0.00 0.00 51 1013.9
20260906112631 59 217 0.0 3.0 0.00 0.00 0.00 51 1013.9
20260906111619 60 216 0.0 2.0 0.00 0.00 0.00 49 1013.9
20260906110630 58 216 0.0 1.0 0.00 0.00 0.00 50 1014.0
20260906105615 57 216 0.0 2.0 0.00 0.00 0.00 54 1013.9
20260906104626 56 216 0.0 3.0 0.00 0.00 0.00 56 1013.9
20260906103617 58 217 2.0 4.0 0.00 0.00 0.00 54 1013.8
20260906102611 59 276 0.0 3.0 0.00 0.00 0.00 52 1013.7
20260906101621 60 125 0.0 1.0 0.00 0.00 0.00 48 1013.7
20260906100651 60 125 0.0 2.0 0.00 0.00 0.00 46 1013.7
20260906095612 60 125 0.0 3.0 0.00 0.00 0.00 48 1013.7
20260906094620 60 113 0.0 2.0 0.00 0.00 0.00 49 1013.5
20260906093614 60 111 0.0 2.0 0.00 0.00 0.00 51 1013.5
20260906092623 59 111 0.0 0.0 0.00 0.00 0.00 50 1013.3
20260906091612 59 111 0.0 1.0 0.00 0.00 0.00 51 1013.3
20260906090644 60 111 0.0 1.0 0.00 0.00 0.00 49 1013.3
20260906085629 60 111 0.0 2.0 0.00 0.00 0.00 50 1013.2
20260906084620 60 111 0.0 1.0 0.00 0.00 0.00 50 1013.2
20260906083631 61 111 0.0 2.0 0.00 0.00 0.00 47 1013.1
20260906082640 62 111 0.0 2.0 0.00 0.00 0.00 46 1013.1
20260906081613 62 111 0.0 1.0 0.00 0.00 0.00 47 1013.2
20260906080621 62 111 0.0 1.0 0.00 0.00 0.00 45 1013.2
20260906075623 62 111 0.0 4.0 0.00 0.00 0.00 46 1013.2
20260906074614 62 235 1.0 3.0 0.00 0.00 0.00 46 1013.3
20260906073629 62 233 1.0 2.0 0.00 0.00 0.00 45 1013.3
20260906072620 62 233 0.0 3.0 0.00 0.00 0.00 46 1013.3
20260906071630 61 233 0.0 2.0 0.00 0.00 0.00 47 1013.1
20260906070624 61 233 0.0 3.0 0.00 0.00 0.00 47 1013.1
20260906065628 63 233 2.0 5.0 0.00 0.00 0.00 44 1013.2
20260906064620 64 163 1.0 6.0 0.00 0.00 0.00 41 1013.0
20260906063629 64 160 0.0 2.0 0.00 0.00 0.00 42 1013.1
20260906062622 64 160 0.0 2.0 0.00 0.00 0.00 40 1013.0
20260906061612 63 160 0.0 3.0 0.00 0.00 0.00 43 1013.1
20260906060629 63 160 1.0 3.0 0.00 0.00 0.00 44 1013.1
20260906055612 64 160 0.0 3.0 0.00 0.00 0.00 43 1013.1
20260906054622 64 160 0.0 2.0 0.00 0.00 0.00 42 1013.1
20260906053615 64 160 0.0 3.0 0.00 0.00 0.00 42 1013.0
20260906052646 65 157 0.0 2.0 0.00 0.00 0.00 42 1013.0
20260906051616 66 157 2.0 6.0 0.00 0.00 0.00 39 1013.0
20260906050627 67 141 0.0 1.0 0.00 0.00 0.00 37 1013.0
20260906045615 69 141 1.0 3.0 0.00 0.00 0.00 34 1013.0
20260906044646 70 141 0.0 4.0 0.00 0.00 0.00 33 1013.0
20260906043615 71 141 1.0 2.0 0.00 0.00 0.00 32 1013.0
20260906042627 71 140 1.0 6.0 0.00 0.00 0.00 32 1013.0
20260906041623 71 154 1.0 4.0 0.00 0.00 0.00 31 1012.9
20260906040614 71 140 2.0 4.0 0.00 0.00 0.00 33 1012.9
20260906035638 71 120 2.0 6.0 0.00 0.00 0.00 34 1012.9
20260906034628 71 156 1.0 3.0 0.00 0.00 0.00 35 1012.9
20260906033624 70 234 0.0 1.0 0.00 0.00 0.00 35 1012.7
20260906032614 70 234 1.0 3.0 0.00 0.00 0.00 36 1012.6
20260906031623 70 236 1.0 10.0 0.00 0.00 0.00 36 1012.5
20260906030612 72 219 1.0 4.0 0.00 0.00 0.00 37 1012.5
20260906025619 75 221 2.0 5.0 0.00 0.00 0.00 33 1012.3
20260906024628 79 88 3.0 5.0 0.00 0.00 0.00 23 1012.2
20260906023617 79 90 3.0 6.0 0.00 0.00 0.00 23 1012.1
20260906022628 79 90 3.0 6.0 0.00 0.00 0.00 24 1012.0
20260906021623 80 175 2.0 3.0 0.00 0.00 0.00 26 1012.1
20260906020613 81 175 1.0 3.0 0.00 0.00 0.00 25 1012.1
20260906015636 82 180 2.0 3.0 0.00 0.00 0.00 23 1012.2
20260906014624 83 180 2.0 3.0 0.00 0.00 0.00 21 1012.3
20260906013616 84 181 0.0 4.0 0.00 0.00 0.00 20 1012.4
20260906012645 84 200 0.0 2.0 0.00 0.00 0.00 19 1012.4
20260906011614 84 200 0.0 3.0 0.00 0.00 0.00 21 1012.5
20260906010624 83 200 2.0 4.0 0.00 0.00 0.00 22 1012.7
20260906005629 84 200 1.0 5.0 0.00 0.00 0.00 23 1012.6
20260906004618 84 214 3.0 6.0 0.00 0.00 0.00 23 1012.6
20260906003627 84 217 4.0 7.0 0.00 0.00 0.00 22 1012.5
20260906002616 85 232 2.0 5.0 0.00 0.00 0.00 24 1012.5
20260906001612 85 216 4.0 8.0 0.00 0.00 0.00 22 1012.5
20260906000623 85 213 4.0 6.0 0.00 0.00 0.00 20 1012.6
20260905235624 85 234 4.0 10.0 0.00 0.00 0.00 21 1012.6
20260905234615 85 211 5.0 12.0 0.00 0.00 0.00 20 1012.7
20260905233629 86 238 5.0 8.0 0.00 0.00 0.00 21 1012.6